Weather History for KROG - August, 2013

Change the Weather History Date:

Friday, August 2, 2013

  Actual Average Record
Temperature  
Mean Temperature 79 °F -  
Max Temperature 86 °F 85 °F 107 °F (2011)
Min Temperature 72 °F 66 °F 64 °F (1997)
Cooling Degree Days 14    
Growing Degree Days 29 (Base 50)    
Moisture  
Dew Point 71 °F    
Average Humidity 77    
Maximum Humidity 87    
Minimum Humidity 65    
Precipitation  
Precipitation 0.00 in - - ()
Sea Level Pressure  
Sea Level Pressure 29.93 in    
Wind  
Wind Speed 8 mph (SE)    
Max Wind Speed 15 mph    
Max Gust Speed 22 mph    
Visibility 10 miles    
Events      
Averages and records for this station are not official NWS values.
T = Trace of Precipitation, MM = Missing Value Source: NWS Daily Summary

Daily Weather History Graph

Daily Weather History Graph

Search for Another Location

Airport or City:

Trip Planner

Search our weather history database for the weather conditions in past years. The results will help you decide how hot, cold, wet, or windy it might be!

Date:

Astronomy

Aug. 02, 2013 Rise Set
Actual Time 6:23 AM CDT 8:20 PM CDT
Civil Twilight 5:55 AM CDT 8:49 PM CDT
Nautical Twilight 5:21 AM CDT 9:23 PM CDT
Astronomical Twilight 4:44 AM CDT 10:00 PM CDT
Moon 2:46 AM CDT (8/2) 5:17 PM CDT (8/2)
Length of Visible Light 14h 53m
Length of Day
13h 56m
Waning Crescent, 15% of the Moon is Illuminated
Aug 2
Waning Crescent
Aug 6
New
Aug 14
First Quarter
Aug 20
Full
Aug 28
Last Quarter

Hourly Weather History & Observations

Time (CDT) Temp. Heat Index Dew Point Humidity Pressure Visibility Wind Dir Wind Speed Gust Speed Precip Events Conditions
12:57 AM 73.9 °F - 66.9 °F 79% 29.99 in 10.0 mi SE 8.1 mph - N/A   Clear
1:57 AM 73.9 °F - 66.0 °F 76% 29.97 in 10.0 mi ESE 8.1 mph - N/A   Clear
2:57 AM 73.0 °F - 66.0 °F 79% 29.95 in 10.0 mi ESE 8.1 mph - N/A   Clear
3:57 AM 73.0 °F - 66.0 °F 79% 29.95 in 10.0 mi SE 9.2 mph - N/A   Clear
4:57 AM 73.0 °F - 66.9 °F 81% 29.94 in 10.0 mi SSE 9.2 mph - N/A   Clear
5:57 AM 72.0 °F - 68.0 °F 87% 29.94 in 10.0 mi SE 8.1 mph - N/A   Clear
6:57 AM 72.0 °F - 68.0 °F 87% 29.97 in 5.0 mi ESE 5.8 mph - N/A   Clear
7:57 AM 73.0 °F - 69.1 °F 87% 29.98 in 5.0 mi SE 4.6 mph - N/A   Clear
8:57 AM 73.9 °F - 69.1 °F 85% 29.96 in 9.0 mi SE 8.1 mph - N/A   Clear
9:57 AM 77.0 °F - 70.0 °F 79% 29.96 in 10.0 mi SSE 11.5 mph - N/A   Clear
10:57 AM 79.0 °F - 71.1 °F 77% 29.97 in 10.0 mi SSE 6.9 mph - N/A   Mostly Cloudy
11:57 AM 81.0 °F 84.9 °F 71.1 °F 72% 29.95 in 10.0 mi South 15.0 mph - N/A   Clear
12:57 PM 82.0 °F 86.3 °F 71.1 °F 69% 29.94 in 10.0 mi South 13.8 mph 21.9 mph N/A   Clear
1:57 PM 84.0 °F 89.0 °F 71.1 °F 65% 29.92 in 10.0 mi South 12.7 mph - N/A   Clear
2:57 PM 84.9 °F 91.4 °F 73.0 °F 67% 29.92 in 10.0 mi SSE 9.2 mph - N/A   Clear
3:57 PM 84.9 °F 91.4 °F 73.0 °F 67% 29.89 in 10.0 mi SSE 11.5 mph - N/A   Clear
4:57 PM 84.9 °F 91.4 °F 73.0 °F 67% 29.90 in 10.0 mi SE 6.9 mph - N/A   Clear
5:57 PM 86.0 °F 93.8 °F 73.9 °F 67% 29.89 in 10.0 mi ESE 4.6 mph - N/A   Clear
6:57 PM 84.0 °F 91.2 °F 73.9 °F 72% 29.91 in 10.0 mi SE 5.8 mph - N/A   Mostly Cloudy
7:57 PM 82.9 °F 89.4 °F 73.9 °F 74% 29.89 in 10.0 mi SE 9.2 mph - 0.00 in   Partly Cloudy
8:57 PM 82.0 °F 87.9 °F 73.9 °F 76% 29.89 in 10.0 mi SSE 9.2 mph - N/A   Clear
9:57 PM 81.0 °F 86.2 °F 73.9 °F 79% 29.90 in 10.0 mi SE 8.1 mph - N/A   Clear
10:57 PM 80.1 °F 84.5 °F 73.9 °F 81% 29.90 in 10.0 mi SSE 5.8 mph - N/A   Clear
11:57 PM 79.0 °F - 73.9 °F 84% 29.91 in 10.0 mi SSE 5.8 mph - N/A   Clear